This is the latest recevied weather packets stored in our database for station/object KC8JWT. If no packets are shown the sender has not sent any weather packets the latest 10 day(s).
| Time | Temp. | Humidity | Pressure | Rain* | Wind** | Luminosity | Snow |
|---|---|---|---|---|---|---|---|
| 1777653992 | 15.56° C | 59% | 1012.2 hPa | 0 mm | - | 310 W/m² | - |
| 1777653688 | 15.56° C | 58% | 1012.2 hPa | 0 mm | - | 326 W/m² | - |
| 1777653385 | 15.56° C | 61% | 1012.3 hPa | 0 mm | - | 289 W/m² | - |
| 1777653082 | 15.56° C | 59% | 1012.5 hPa | 0 mm | - | 212 W/m² | - |
| 1777652778 | 15.56° C | 61% | 1012.4 hPa | 0 mm | - | 218 W/m² | - |
| 1777652475 | 16.11° C | 59% | 1012.4 hPa | 0 mm | - | 360 W/m² | - |
| 1777652172 | 15.56° C | 60% | 1012.5 hPa | 0 mm | - | 453 W/m² | - |
| 1777651869 | 15° C | 61% | 1012.5 hPa | 0 mm | - | 325 W/m² | - |
| 1777651565 | 15.56° C | 60% | 1012.4 hPa | 0 mm | - | 299 W/m² | - |
| 1777651263 | 15° C | 60% | 1012.4 hPa | 0 mm | - | 385 W/m² | - |
| 1777650959 | 15° C | 61% | 1012.6 hPa | 0 mm | - | 306 W/m² | - |
| 1777650656 | 14.44° C | 61% | 1012.7 hPa | 0 mm | - | 258 W/m² | - |
| 1777650354 | 14.44° C | 59% | 1012.6 hPa | 0 mm | - | 220 W/m² | - |
| 1777650050 | 15° C | 59% | 1012.9 hPa | 0 mm | - | 206 W/m² | - |
| 1777649748 | 15.56° C | 59% | 1012.9 hPa | 0 mm | - | 340 W/m² | - |
| 1777649444 | 16.11° C | 60% | 1012.5 hPa | 0 mm | - | 349 W/m² | - |
| 1777649141 | 16.11° C | 59% | 1012.7 hPa | 0 mm | - | 500 W/m² | - |
| 1777648839 | 15.56° C | 64% | 1012.6 hPa | 0 mm | - | 531 W/m² | - |
| 1777648535 | 15.56° C | 59% | 1013 hPa | 0 mm | - | 388 W/m² | - |
| 1777648232 | 15° C | 63% | 1012.7 hPa | 0 mm | - | 438 W/m² | - |
| 1777647927 | 14.44° C | 63% | 1012.7 hPa | 0 mm | - | 377 W/m² | - |
| 1777647624 | 14.44° C | 64% | 1012.7 hPa | 0 mm | - | 327 W/m² | - |
| 1777647320 | 15° C | 65% | 1012.9 hPa | 0 mm | - | 252 W/m² | - |
| 1777647019 | 14.44° C | 65% | 1013 hPa | 0 mm | - | 281 W/m² | - |
| 1777646714 | 14.44° C | 64% | 1013.1 hPa | 0 mm | - | 278 W/m² | - |
* Rain latest hour (hover to see other rain measurements)
** Current wind speed in m/s (hover to see current wind gust speed)